Regional Weather Roundup
Issued by NWS

Home | Current Version | Previous Version | Graphics & Text | Print | Product List | Glossary On
Versions: 1 2 3 4 5 6 7 8 9 10 11 12 13 14 15 16 17 18 19 20 21 22 23 24 25 26 27 28 29 30 31 32 33 34 35 36 37 38 39 40 41 42 43 44 45 46 47 48 49 50
000
ASUS43 KBIS 301802
RWRND

NORTH DAKOTA REGIONAL WEATHER ROUNDUP
NATIONAL WEATHER SERVICE BISMARCK ND
100 PM CDT MON MAY 30 2016

NOTE: "FAIR" INDICATES FEW OR NO CLOUDS BELOW 12,000 FEET WITH NO
SIGNIFICANT WEATHER AND/OR OBSTRUCTIONS TO VISIBILITY.


NDZ001>003-009>011-017-301900-
NORTHWEST NORTH DAKOTA

CITY           SKY/WX    TMP DP  RH WIND       PRES   REMARKS
WILLISTON      LGT RAIN  57  52  83 S3        29.94F
6HR MIN TEMP:  48; 6HR MAX TEMP:  59; 6HR PCP:  0.03;

MINOT          CLOUDY    75  50  41 CALM      29.88R
MINOT AFB      CLOUDY    72  51  48 CALM      29.88R
$$

NDZ018>021-031>035-040>046-301900-
SOUTHWEST NORTH DAKOTA

CITY           SKY/WX    TMP DP  RH WIND       PRES   REMARKS
BISMARCK       MOSUNNY   76  58  53 SE13      29.85F
6HR MIN TEMP:  53; 6HR MAX TEMP:  78;

DICKINSON      RAIN      53  51  93 N9        29.91F
GARRISON         N/A     65  51  60 N13       29.88F
6HR MIN TEMP:  53; 6HR MAX TEMP:  67;

HETTINGER ARPT LGT RAIN  57  53  86 N23G29    29.89S
$$

NDZ004>008-012>016-024-026-027-054-301900-
NORTHEAST NORTH DAKOTA

CITY           SKY/WX    TMP DP  RH WIND       PRES   REMARKS
GRAND FORKS    MOSUNNY   80  50  34 SE6       29.88F
GRND FRKS AFB  SUNNY     79  52  39 VRB2      29.89S
DEVILS LAKE    CLOUDY    76  51  41 E5        29.88F
$$

NDZ022-023-025-028>030-036>039-047>053-301900-
SOUTHEAST NORTH DAKOTA

CITY           SKY/WX    TMP DP  RH WIND       PRES   REMARKS
FARGO          SUNNY     83  48  29 VRB7      29.88F
6HR MIN TEMP:  59; 6HR MAX TEMP:  84;

JAMESTOWN      SUNNY     81  52  36 SE9G17    29.86F
$$





USA.gov is the U.S. government's official web portal to all federal, state and local government web resources and services.